Year,Month,Day,Hour,Minute,Value (Times are PST for insolation in W/m^2)
2014,07,03,00,00,0.00
2014,07,03,00,01,0.00
2014,07,03,00,02,0.00
2014,07,03,00,03,0.00
2014,07,03,00,04,0.00
2014,07,03,00,05,0.00
2014,07,03,00,06,0.00
2014,07,03,00,07,0.00
2014,07,03,00,08,0.00
2014,07,03,00,09,0.00
2014,07,03,00,10,0.00
2014,07,03,00,11,0.00
2014,07,03,00,12,0.00
2014,07,03,00,13,0.00
2014,07,03,00,14,0.00
2014,07,03,00,15,0.00
2014,07,03,00,16,0.00
2014,07,03,00,17,0.00
2014,07,03,00,18,0.00
2014,07,03,00,19,0.00
2014,07,03,00,20,0.00
2014,07,03,00,21,0.00
2014,07,03,00,22,0.00
2014,07,03,00,23,0.00
2014,07,03,00,24,0.00
2014,07,03,00,25,0.00
2014,07,03,00,26,0.00
2014,07,03,00,27,0.00
2014,07,03,00,28,0.00
2014,07,03,00,29,0.00
2014,07,03,00,30,0.00
2014,07,03,00,31,0.00
2014,07,03,00,32,0.00
2014,07,03,00,33,0.00
2014,07,03,00,34,0.00
2014,07,03,00,35,0.00
2014,07,03,00,36,0.00
2014,07,03,00,37,0.00
2014,07,03,00,38,0.00
2014,07,03,00,39,0.00
2014,07,03,00,40,0.00
2014,07,03,00,41,0.00
2014,07,03,00,42,0.00
2014,07,03,00,43,0.00
2014,07,03,00,44,0.00
2014,07,03,00,45,0.00
2014,07,03,00,46,0.00
2014,07,03,00,47,0.00
2014,07,03,00,48,0.00
2014,07,03,00,49,0.00
2014,07,03,00,50,0.00
2014,07,03,00,51,0.00
2014,07,03,00,52,0.00
2014,07,03,00,53,0.00
2014,07,03,00,54,0.00
2014,07,03,00,55,0.00
2014,07,03,00,56,0.00
2014,07,03,00,57,0.00
2014,07,03,00,58,0.00
2014,07,03,00,59,0.00
2014,07,03,01,00,0.00
2014,07,03,01,01,0.00
2014,07,03,01,02,0.00
2014,07,03,01,03,0.00
2014,07,03,01,04,0.00
2014,07,03,01,05,0.00
2014,07,03,01,06,0.00
2014,07,03,01,07,0.00
2014,07,03,01,08,0.00
2014,07,03,01,09,0.00
2014,07,03,01,10,0.00
2014,07,03,01,11,0.00
2014,07,03,01,12,0.00
2014,07,03,01,13,0.00
2014,07,03,01,14,0.00
2014,07,03,01,15,0.00
2014,07,03,01,16,0.00
2014,07,03,01,17,0.00
2014,07,03,01,18,0.00
2014,07,03,01,19,0.00
2014,07,03,01,20,0.00
2014,07,03,01,21,0.00
2014,07,03,01,22,0.00
2014,07,03,01,23,0.00
2014,07,03,01,24,0.00
2014,07,03,01,25,0.00
2014,07,03,01,26,0.00
2014,07,03,01,27,0.00
2014,07,03,01,28,0.00
2014,07,03,01,29,0.00
2014,07,03,01,30,0.00
2014,07,03,01,31,0.00
2014,07,03,01,32,0.00
2014,07,03,01,33,0.00
2014,07,03,01,34,0.00
2014,07,03,01,35,0.00
2014,07,03,01,36,0.00
2014,07,03,01,37,0.00
2014,07,03,01,38,0.00
2014,07,03,01,39,0.00
2014,07,03,01,40,0.00
2014,07,03,01,41,0.00
2014,07,03,01,42,0.00
2014,07,03,01,43,0.00
2014,07,03,01,44,0.00
2014,07,03,01,45,0.00
2014,07,03,01,46,0.00
2014,07,03,01,47,0.00
2014,07,03,01,48,0.00
2014,07,03,01,49,0.00
2014,07,03,01,50,0.00
2014,07,03,01,51,0.00
2014,07,03,01,52,0.00
2014,07,03,01,53,0.00
2014,07,03,01,54,0.00
2014,07,03,01,55,0.00
2014,07,03,01,56,0.00
2014,07,03,01,57,0.00
2014,07,03,01,58,0.00
2014,07,03,01,59,0.00
2014,07,03,02,00,0.00
2014,07,03,02,01,0.00
2014,07,03,02,02,0.00
2014,07,03,02,03,0.00
2014,07,03,02,04,0.00
2014,07,03,02,05,0.00
2014,07,03,02,06,0.00
2014,07,03,02,07,0.00
2014,07,03,02,08,0.00
2014,07,03,02,09,0.00
2014,07,03,02,10,0.00
2014,07,03,02,11,0.00
2014,07,03,02,12,0.00
2014,07,03,02,13,0.00
2014,07,03,02,14,0.00
2014,07,03,02,15,0.00
2014,07,03,02,16,0.00
2014,07,03,02,17,0.00
2014,07,03,02,18,0.00
2014,07,03,02,19,0.00
2014,07,03,02,20,0.00
2014,07,03,02,21,0.00
2014,07,03,02,22,0.00
2014,07,03,02,23,0.00
2014,07,03,02,24,0.00
2014,07,03,02,25,0.00
2014,07,03,02,26,0.00
2014,07,03,02,27,0.00
2014,07,03,02,28,0.00
2014,07,03,02,29,0.00
2014,07,03,02,30,0.00
2014,07,03,02,31,0.00
2014,07,03,02,32,0.00
2014,07,03,02,33,0.00
2014,07,03,02,34,0.00
2014,07,03,02,35,0.00
2014,07,03,02,36,0.00
2014,07,03,02,37,0.00
2014,07,03,02,38,0.00
2014,07,03,02,39,0.00
2014,07,03,02,40,0.00
2014,07,03,02,41,0.00
2014,07,03,02,42,0.00
2014,07,03,02,43,0.00
2014,07,03,02,44,0.00
2014,07,03,02,45,0.00
2014,07,03,02,46,0.00
2014,07,03,02,47,0.00
2014,07,03,02,48,0.00
2014,07,03,02,49,0.00
2014,07,03,02,50,0.00
2014,07,03,02,51,0.00
2014,07,03,02,52,0.00
2014,07,03,02,53,0.00
2014,07,03,02,54,0.00
2014,07,03,02,55,0.00
2014,07,03,02,56,0.00
2014,07,03,02,57,0.00
2014,07,03,02,58,0.00
2014,07,03,02,59,0.00
2014,07,03,03,00,0.00
2014,07,03,03,01,0.00
2014,07,03,03,02,0.00
2014,07,03,03,03,0.00
2014,07,03,03,04,0.00
2014,07,03,03,05,0.00
2014,07,03,03,06,0.00
2014,07,03,03,07,0.00
2014,07,03,03,08,0.00
2014,07,03,03,09,0.00
2014,07,03,03,10,0.00
2014,07,03,03,11,0.00
2014,07,03,03,12,0.00
2014,07,03,03,13,0.00
2014,07,03,03,14,0.00
2014,07,03,03,15,0.00
2014,07,03,03,16,0.00
2014,07,03,03,17,0.00
2014,07,03,03,18,0.00
2014,07,03,03,19,0.00
2014,07,03,03,20,0.00
2014,07,03,03,21,0.00
2014,07,03,03,22,0.00
2014,07,03,03,23,0.00
2014,07,03,03,24,0.00
2014,07,03,03,25,0.00
2014,07,03,03,26,0.00
2014,07,03,03,27,0.00
2014,07,03,03,28,0.00
2014,07,03,03,29,0.00
2014,07,03,03,30,0.00
2014,07,03,03,31,0.00
2014,07,03,03,32,0.00
2014,07,03,03,33,0.00
2014,07,03,03,34,0.00
2014,07,03,03,35,0.00
2014,07,03,03,36,0.00
2014,07,03,03,37,0.00
2014,07,03,03,38,0.00
2014,07,03,03,39,0.00
2014,07,03,03,40,0.00
2014,07,03,03,41,0.00
2014,07,03,03,42,0.00
2014,07,03,03,43,0.00
2014,07,03,03,44,0.00
2014,07,03,03,45,0.00
2014,07,03,03,46,0.00
2014,07,03,03,47,0.00
2014,07,03,03,48,0.00
2014,07,03,03,49,0.00
2014,07,03,03,50,0.00
2014,07,03,03,51,0.00
2014,07,03,03,52,0.00
2014,07,03,03,53,0.00
2014,07,03,03,54,0.00
2014,07,03,03,55,0.00
2014,07,03,03,56,0.00
2014,07,03,03,57,0.00
2014,07,03,03,58,0.00
2014,07,03,03,59,0.00
2014,07,03,04,00,0.00
2014,07,03,04,01,0.00
2014,07,03,04,02,0.00
2014,07,03,04,03,0.00
2014,07,03,04,04,0.00
2014,07,03,04,05,0.00
2014,07,03,04,06,0.00
2014,07,03,04,07,0.00
2014,07,03,04,08,0.00
2014,07,03,04,09,0.00
2014,07,03,04,10,0.00
2014,07,03,04,11,0.00
2014,07,03,04,12,0.00
2014,07,03,04,13,0.00
2014,07,03,04,14,0.00
2014,07,03,04,15,0.00
2014,07,03,04,16,0.00
2014,07,03,04,17,0.00
2014,07,03,04,18,0.00
2014,07,03,04,19,0.00
2014,07,03,04,20,0.00
2014,07,03,04,21,0.00
2014,07,03,04,22,0.00
2014,07,03,04,23,0.00
2014,07,03,04,24,0.00
2014,07,03,04,25,0.00
2014,07,03,04,26,0.00
2014,07,03,04,27,0.00
2014,07,03,04,28,0.00
2014,07,03,04,29,0.00
2014,07,03,04,30,0.00
2014,07,03,04,31,0.00
2014,07,03,04,32,0.00
2014,07,03,04,33,0.00
2014,07,03,04,34,0.00
2014,07,03,04,35,0.00
2014,07,03,04,36,0.00
2014,07,03,04,37,0.00
2014,07,03,04,38,0.00
2014,07,03,04,39,0.00
2014,07,03,04,40,0.00
2014,07,03,04,41,0.00
2014,07,03,04,42,0.00
2014,07,03,04,43,0.00
2014,07,03,04,44,0.00
2014,07,03,04,45,0.00
2014,07,03,04,46,0.00
2014,07,03,04,47,0.00
2014,07,03,04,48,0.00
2014,07,03,04,49,0.00
2014,07,03,04,50,0.00
2014,07,03,04,51,0.00
2014,07,03,04,52,0.00
2014,07,03,04,53,0.00
2014,07,03,04,54,0.00
2014,07,03,04,55,0.00
2014,07,03,04,56,0.00
2014,07,03,04,57,0.00
2014,07,03,04,58,0.00
2014,07,03,04,59,0.00
2014,07,03,05,00,0.00
2014,07,03,05,01,0.00
2014,07,03,05,02,0.00
2014,07,03,05,03,0.00
2014,07,03,05,04,0.00
2014,07,03,05,05,0.00
2014,07,03,05,06,0.00
2014,07,03,05,07,0.00
2014,07,03,05,08,0.00
2014,07,03,05,09,0.00
2014,07,03,05,10,0.00
2014,07,03,05,11,0.00
2014,07,03,05,12,0.00
2014,07,03,05,13,0.00
2014,07,03,05,14,0.00
2014,07,03,05,15,0.00
2014,07,03,05,16,0.00
2014,07,03,05,17,0.00
2014,07,03,05,18,0.00
2014,07,03,05,19,0.00
2014,07,03,05,20,0.00
2014,07,03,05,21,0.00
2014,07,03,05,22,0.00
2014,07,03,05,23,0.00
2014,07,03,05,24,0.00
2014,07,03,05,25,0.00
2014,07,03,05,26,0.00
2014,07,03,05,27,0.00
2014,07,03,05,28,0.00
2014,07,03,05,29,0.00
2014,07,03,05,30,0.00
2014,07,03,05,31,0.00
2014,07,03,05,32,0.00
2014,07,03,05,33,0.00
2014,07,03,05,34,4.50
2014,07,03,05,35,5.00
2014,07,03,05,36,5.00
2014,07,03,05,37,5.00
2014,07,03,05,38,6.00
2014,07,03,05,39,7.00
2014,07,03,05,40,7.00
2014,07,03,05,41,7.00
2014,07,03,05,42,9.00
2014,07,03,05,43,9.00
2014,07,03,05,44,9.00
2014,07,03,05,45,10.00
2014,07,03,05,46,11.00
2014,07,03,05,47,11.00
2014,07,03,05,48,11.90
2014,07,03,05,49,12.00
2014,07,03,05,50,12.60
2014,07,03,05,51,14.00
2014,07,03,05,52,14.00
2014,07,03,05,53,14.00
2014,07,03,05,54,15.50
2014,07,03,05,55,16.00
2014,07,03,05,56,16.30
2014,07,03,05,57,18.00
2014,07,03,05,58,18.00
2014,07,03,05,59,18.00
2014,07,03,06,00,18.60
2014,07,03,06,01,19.00
2014,07,03,06,02,19.00
2014,07,03,06,03,19.30
2014,07,03,06,04,21.00
2014,07,03,06,05,21.00
2014,07,03,06,06,21.00
2014,07,03,06,07,22.30
2014,07,03,06,08,23.00
2014,07,03,06,09,23.00
2014,07,03,06,10,23.00
2014,07,03,06,11,23.60
2014,07,03,06,12,25.00
2014,07,03,06,13,25.00
2014,07,03,06,14,25.00
2014,07,03,06,15,25.00
2014,07,03,06,16,25.00
2014,07,03,06,17,25.00
2014,07,03,06,18,25.20
2014,07,03,06,19,26.70
2014,07,03,06,20,28.00
2014,07,03,06,21,29.30
2014,07,03,06,22,31.50
2014,07,03,06,23,32.00
2014,07,03,06,24,33.00
2014,07,03,06,25,33.50
2014,07,03,06,26,35.00
2014,07,03,06,27,35.00
2014,07,03,06,28,36.30
2014,07,03,06,29,37.00
2014,07,03,06,30,37.10
2014,07,03,06,31,39.00
2014,07,03,06,32,39.00
2014,07,03,06,33,39.40
2014,07,03,06,34,41.00
2014,07,03,06,35,43.30
2014,07,03,06,36,46.30
2014,07,03,06,37,48.90
2014,07,03,06,38,51.50
2014,07,03,06,39,54.60
2014,07,03,06,40,56.70
2014,07,03,06,41,58.00
2014,07,03,06,42,59.30
2014,07,03,06,43,58.50
2014,07,03,06,44,58.00
2014,07,03,06,45,57.70
2014,07,03,06,46,56.00
2014,07,03,06,47,56.00
2014,07,03,06,48,56.00
2014,07,03,06,49,57.40
2014,07,03,06,50,58.00
2014,07,03,06,51,59.70
2014,07,03,06,52,60.00
2014,07,03,06,53,60.60
2014,07,03,06,54,62.40
2014,07,03,06,55,65.00
2014,07,03,06,56,68.40
2014,07,03,06,57,71.50
2014,07,03,06,58,73.80
2014,07,03,06,59,76.10
2014,07,03,07,00,77.50
2014,07,03,07,01,79.90
2014,07,03,07,02,82.00
2014,07,03,07,03,83.70
2014,07,03,07,04,84.00
2014,07,03,07,05,84.00
2014,07,03,07,06,84.30
2014,07,03,07,07,85.50
2014,07,03,07,08,84.00
2014,07,03,07,09,83.50
2014,07,03,07,10,81.70
2014,07,03,07,11,81.00
2014,07,03,07,12,81.00
2014,07,03,07,13,81.00
2014,07,03,07,14,81.50
2014,07,03,07,15,83.40
2014,07,03,07,16,84.00
2014,07,03,07,17,84.00
2014,07,03,07,18,83.20
2014,07,03,07,19,79.30
2014,07,03,07,20,76.60
2014,07,03,07,21,73.50
2014,07,03,07,22,72.00
2014,07,03,07,23,70.90
2014,07,03,07,24,70.00
2014,07,03,07,25,70.00
2014,07,03,07,26,67.30
2014,07,03,07,27,66.70
2014,07,03,07,28,65.00
2014,07,03,07,29,65.80
2014,07,03,07,30,68.40
2014,07,03,07,31,70.00
2014,07,03,07,32,71.50
2014,07,03,07,33,72.00
2014,07,03,07,34,69.90
2014,07,03,07,35,68.50
2014,07,03,07,36,67.00
2014,07,03,07,37,67.00
2014,07,03,07,38,67.00
2014,07,03,07,39,63.20
2014,07,03,07,40,62.00
2014,07,03,07,41,62.00
2014,07,03,07,42,63.90
2014,07,03,07,43,72.30
2014,07,03,07,44,84.10
2014,07,03,07,45,95.10
2014,07,03,07,46,99.50
2014,07,03,07,47,94.70
2014,07,03,07,48,77.70
2014,07,03,07,49,69.20
2014,07,03,07,50,66.20
2014,07,03,07,51,66.10
2014,07,03,07,52,68.30
2014,07,03,07,53,71.30
2014,07,03,07,54,78.60
2014,07,03,07,55,91.00
2014,07,03,07,56,91.00
2014,07,03,07,57,187.00
2014,07,03,07,58,357.50
2014,07,03,07,59,351.10
2014,07,03,08,00,363.80
2014,07,03,08,01,369.00
2014,07,03,08,02,369.70
2014,07,03,08,03,370.70
2014,07,03,08,04,382.10
2014,07,03,08,05,418.00
2014,07,03,08,06,418.00
2014,07,03,08,07,418.00
2014,07,03,08,08,406.90
2014,07,03,08,09,185.60
2014,07,03,08,10,255.00
2014,07,03,08,11,201.30
2014,07,03,08,12,108.50
2014,07,03,08,13,97.00
2014,07,03,08,14,86.00
2014,07,03,08,15,85.80
2014,07,03,08,16,88.00
2014,07,03,08,17,88.50
2014,07,03,08,18,90.40
2014,07,03,08,19,89.40
2014,07,03,08,20,86.70
2014,07,03,08,21,87.50
2014,07,03,08,22,84.40
2014,07,03,08,23,77.00
2014,07,03,08,24,77.00
2014,07,03,08,25,90.30
2014,07,03,08,26,111.00
2014,07,03,08,27,111.00
2014,07,03,08,28,147.30
2014,07,03,08,29,158.00
2014,07,03,08,30,506.30
2014,07,03,08,31,534.10
2014,07,03,08,32,525.50
2014,07,03,08,33,457.60
2014,07,03,08,34,452.00
2014,07,03,08,35,420.10
2014,07,03,08,36,408.00
2014,07,03,08,37,381.10
2014,07,03,08,38,219.50
2014,07,03,08,39,218.80
2014,07,03,08,40,220.00
2014,07,03,08,41,221.90
2014,07,03,08,42,224.60
2014,07,03,08,43,228.40
2014,07,03,08,44,234.00
2014,07,03,08,45,233.50
2014,07,03,08,46,231.20
2014,07,03,08,47,225.50
2014,07,03,08,48,211.50
2014,07,03,08,49,199.00
2014,07,03,08,50,198.80
2014,07,03,08,51,184.90
2014,07,03,08,52,176.20
2014,07,03,08,53,170.20
2014,07,03,08,54,170.50
2014,07,03,08,55,179.00
2014,07,03,08,56,196.30
2014,07,03,08,57,216.40
2014,07,03,08,58,232.70
2014,07,03,08,59,237.00
2014,07,03,09,00,242.50
2014,07,03,09,01,246.40
2014,07,03,09,02,241.70
2014,07,03,09,03,242.50
2014,07,03,09,04,243.00
2014,07,03,09,05,241.80
2014,07,03,09,06,234.00
2014,07,03,09,07,238.90
2014,07,03,09,08,250.50
2014,07,03,09,09,255.00
2014,07,03,09,10,255.00
2014,07,03,09,11,267.00
2014,07,03,09,12,519.00
2014,07,03,09,13,454.30
2014,07,03,09,14,257.70
2014,07,03,09,15,241.70
2014,07,03,09,16,249.20
2014,07,03,09,17,251.00
2014,07,03,09,18,251.00
2014,07,03,09,19,251.00
2014,07,03,09,20,251.00
2014,07,03,09,21,228.10
2014,07,03,09,22,236.20
2014,07,03,09,23,274.00
2014,07,03,09,24,274.00
2014,07,03,09,25,214.70
2014,07,03,09,26,260.30
2014,07,03,09,27,584.80
2014,07,03,09,28,582.50
2014,07,03,09,29,582.70
2014,07,03,09,30,588.80
2014,07,03,09,31,605.90
2014,07,03,09,32,628.00
2014,07,03,09,33,563.00
2014,07,03,09,34,451.20
2014,07,03,09,35,153.00
2014,07,03,09,36,153.00
2014,07,03,09,37,442.50
2014,07,03,09,38,609.60
2014,07,03,09,39,614.40
2014,07,03,09,40,613.90
2014,07,03,09,41,619.60
2014,07,03,09,42,621.00
2014,07,03,09,43,621.00
2014,07,03,09,44,623.00
2014,07,03,09,45,629.30
2014,07,03,09,46,639.10
2014,07,03,09,47,653.00
2014,07,03,09,48,655.90
2014,07,03,09,49,649.00
2014,07,03,09,50,655.70
2014,07,03,09,51,666.20
2014,07,03,09,52,679.40
2014,07,03,09,53,694.60
2014,07,03,09,54,723.20
2014,07,03,09,55,760.10
2014,07,03,09,56,798.90
2014,07,03,09,57,840.40
2014,07,03,09,58,835.20
2014,07,03,09,59,821.00
2014,07,03,10,00,562.60
2014,07,03,10,01,538.00
2014,07,03,10,02,538.00
2014,07,03,10,03,538.00
2014,07,03,10,04,444.60
2014,07,03,10,05,359.60
2014,07,03,10,06,370.20
2014,07,03,10,07,383.60
2014,07,03,10,08,379.50
2014,07,03,10,09,377.30
2014,07,03,10,10,382.60
2014,07,03,10,11,392.30
2014,07,03,10,12,414.00
2014,07,03,10,13,393.00
2014,07,03,10,14,374.00
2014,07,03,10,15,371.40
2014,07,03,10,16,376.30
2014,07,03,10,17,385.00
2014,07,03,10,18,392.00
2014,07,03,10,19,398.00
2014,07,03,10,20,399.00
2014,07,03,10,21,399.20
2014,07,03,10,22,403.10
2014,07,03,10,23,404.60
2014,07,03,10,24,406.00
2014,07,03,10,25,416.50
2014,07,03,10,26,448.60
2014,07,03,10,27,432.80
2014,07,03,10,28,420.30
2014,07,03,10,29,416.70
2014,07,03,10,30,416.30
2014,07,03,10,31,424.50
2014,07,03,10,32,422.70
2014,07,03,10,33,411.70
2014,07,03,10,34,410.00
2014,07,03,10,35,411.00
2014,07,03,10,36,413.30
2014,07,03,10,37,413.90
2014,07,03,10,38,411.00
2014,07,03,10,39,411.00
2014,07,03,10,40,413.50
2014,07,03,10,41,416.60
2014,07,03,10,42,417.00
2014,07,03,10,43,417.90
2014,07,03,10,44,416.40
2014,07,03,10,45,415.00
2014,07,03,10,46,415.00
2014,07,03,10,47,416.30
2014,07,03,10,48,412.30
2014,07,03,10,49,415.00
2014,07,03,10,50,423.40
2014,07,03,10,51,431.20
2014,07,03,10,52,432.70
2014,07,03,10,53,437.00
2014,07,03,10,54,434.70
2014,07,03,10,55,437.10
2014,07,03,10,56,441.00
2014,07,03,10,57,446.50
2014,07,03,10,58,448.90
2014,07,03,10,59,448.50
2014,07,03,11,00,456.50
2014,07,03,11,01,464.20
2014,07,03,11,02,466.00
2014,07,03,11,03,468.70
2014,07,03,11,04,470.30
2014,07,03,11,05,466.70
2014,07,03,11,06,468.60
2014,07,03,11,07,462.50
2014,07,03,11,08,455.70
2014,07,03,11,09,456.50
2014,07,03,11,10,457.00
2014,07,03,11,11,460.90
2014,07,03,11,12,471.10
2014,07,03,11,13,467.80
2014,07,03,11,14,482.00
2014,07,03,11,15,492.00
2014,07,03,11,16,488.20
2014,07,03,11,17,493.00
2014,07,03,11,18,508.70
2014,07,03,11,19,512.20
2014,07,03,11,20,508.50
2014,07,03,11,21,505.00
2014,07,03,11,22,497.60
2014,07,03,11,23,494.00
2014,07,03,11,24,485.90
2014,07,03,11,25,473.70
2014,07,03,11,26,455.50
2014,07,03,11,27,444.00
2014,07,03,11,28,439.40
2014,07,03,11,29,438.00
2014,07,03,11,30,440.30
2014,07,03,11,31,453.70
2014,07,03,11,32,440.00
2014,07,03,11,33,433.50
2014,07,03,11,34,432.00
2014,07,03,11,35,433.00
2014,07,03,11,36,435.30
2014,07,03,11,37,439.90
2014,07,03,11,38,444.60
2014,07,03,11,39,451.00
2014,07,03,11,40,443.90
2014,07,03,11,41,441.00
2014,07,03,11,42,438.50
2014,07,03,11,43,434.80
2014,07,03,11,44,430.10
2014,07,03,11,45,427.20
2014,07,03,11,46,424.90
2014,07,03,11,47,423.50
2014,07,03,11,48,421.30
2014,07,03,11,49,420.00
2014,07,03,11,50,422.50
2014,07,03,11,51,424.00
2014,07,03,11,52,422.20
2014,07,03,11,53,419.70
2014,07,03,11,54,417.10
2014,07,03,11,55,415.80
2014,07,03,11,56,417.00
2014,07,03,11,57,417.60
2014,07,03,11,58,422.60
2014,07,03,11,59,431.50
2014,07,03,12,00,438.50
2014,07,03,12,01,441.50
2014,07,03,12,02,443.70
2014,07,03,12,03,446.50
2014,07,03,12,04,450.50
2014,07,03,12,05,461.10
2014,07,03,12,06,485.70
2014,07,03,12,07,499.00
2014,07,03,12,08,502.50
2014,07,03,12,09,526.30
2014,07,03,12,10,542.10
2014,07,03,12,11,572.80
2014,07,03,12,12,589.00
2014,07,03,12,13,589.00
2014,07,03,12,14,589.00
2014,07,03,12,15,602.80
2014,07,03,12,16,639.80
2014,07,03,12,17,612.50
2014,07,03,12,18,581.20
2014,07,03,12,19,588.40
2014,07,03,12,20,647.30
2014,07,03,12,21,586.70
2014,07,03,12,22,572.00
2014,07,03,12,23,575.80
2014,07,03,12,24,628.30
2014,07,03,12,25,629.90
2014,07,03,12,26,592.80
2014,07,03,12,27,601.10
2014,07,03,12,28,627.00
2014,07,03,12,29,615.00
2014,07,03,12,30,601.70
2014,07,03,12,31,579.00
2014,07,03,12,32,568.00
2014,07,03,12,33,547.50
2014,07,03,12,34,538.50
2014,07,03,12,35,548.60
2014,07,03,12,36,580.10
2014,07,03,12,37,581.70
2014,07,03,12,38,580.50
2014,07,03,12,39,588.90
2014,07,03,12,40,619.90
2014,07,03,12,41,587.80
2014,07,03,12,42,578.60
2014,07,03,12,43,570.80
2014,07,03,12,44,582.00
2014,07,03,12,45,619.00
2014,07,03,12,46,642.00
2014,07,03,12,47,762.30
2014,07,03,12,48,789.00
2014,07,03,12,49,784.70
2014,07,03,12,50,765.70
2014,07,03,12,51,780.70
2014,07,03,12,52,783.00
2014,07,03,12,53,747.00
2014,07,03,12,54,715.00
2014,07,03,12,55,715.00
2014,07,03,12,56,715.00
2014,07,03,12,57,715.00
2014,07,03,12,58,709.90
2014,07,03,12,59,726.00
2014,07,03,13,00,744.50
2014,07,03,13,01,781.40
2014,07,03,13,02,793.00
2014,07,03,13,03,772.50
2014,07,03,13,04,644.70
2014,07,03,13,05,686.40
2014,07,03,13,06,715.00
2014,07,03,13,07,715.00
2014,07,03,13,08,716.60
2014,07,03,13,09,744.30
2014,07,03,13,10,778.80
2014,07,03,13,11,705.60
2014,07,03,13,12,647.50
2014,07,03,13,13,582.00
2014,07,03,13,14,565.40
2014,07,03,13,15,543.70
2014,07,03,13,16,529.90
2014,07,03,13,17,528.20
2014,07,03,13,18,543.40
2014,07,03,13,19,563.40
2014,07,03,13,20,567.10
2014,07,03,13,21,589.70
2014,07,03,13,22,678.30
2014,07,03,13,23,701.00
2014,07,03,13,24,1060.00
2014,07,03,13,25,1060.00
2014,07,03,13,26,1060.00
2014,07,03,13,27,1181.00
2014,07,03,13,28,1292.00
2014,07,03,13,29,1292.00
2014,07,03,13,30,767.70
2014,07,03,13,31,678.90
2014,07,03,13,32,670.00
2014,07,03,13,33,681.40
2014,07,03,13,34,659.50
2014,07,03,13,35,641.10
2014,07,03,13,36,611.60
2014,07,03,13,37,609.70
2014,07,03,13,38,592.50
2014,07,03,13,39,566.10
2014,07,03,13,40,552.50
2014,07,03,13,41,551.50
2014,07,03,13,42,568.00
2014,07,03,13,43,581.90
2014,07,03,13,44,644.90
2014,07,03,13,45,686.90
2014,07,03,13,46,630.10
2014,07,03,13,47,589.10
2014,07,03,13,48,611.10
2014,07,03,13,49,592.40
2014,07,03,13,50,546.40
2014,07,03,13,51,542.70
2014,07,03,13,52,569.10
2014,07,03,13,53,570.50
2014,07,03,13,54,618.10
2014,07,03,13,55,687.60
2014,07,03,13,56,729.00
2014,07,03,13,57,1031.10
2014,07,03,13,58,1120.00
2014,07,03,13,59,1120.00
2014,07,03,14,00,1075.80
2014,07,03,14,01,958.00
2014,07,03,14,02,865.50
2014,07,03,14,03,730.60
2014,07,03,14,04,693.10
2014,07,03,14,05,676.30
2014,07,03,14,06,674.90
2014,07,03,14,07,773.10
2014,07,03,14,08,835.30
2014,07,03,14,09,820.00
2014,07,03,14,10,810.00
2014,07,03,14,11,810.00
2014,07,03,14,12,810.00
2014,07,03,14,13,810.00
2014,07,03,14,14,810.00
2014,07,03,14,15,829.60
2014,07,03,14,16,860.00
2014,07,03,14,17,739.70
2014,07,03,14,18,628.30
2014,07,03,14,19,621.30
2014,07,03,14,20,634.40
2014,07,03,14,21,676.40
2014,07,03,14,22,585.30
2014,07,03,14,23,593.50
2014,07,03,14,24,626.00
2014,07,03,14,25,626.00
2014,07,03,14,26,789.70
2014,07,03,14,27,794.20
2014,07,03,14,28,789.00
2014,07,03,14,29,852.40
2014,07,03,14,30,964.00
2014,07,03,14,31,959.20
2014,07,03,14,32,983.40
2014,07,03,14,33,991.20
2014,07,03,14,34,995.10
2014,07,03,14,35,1010.00
2014,07,03,14,36,1012.20
2014,07,03,14,37,1011.00
2014,07,03,14,38,900.80
2014,07,03,14,39,842.00
2014,07,03,14,40,942.40
2014,07,03,14,41,944.10
2014,07,03,14,42,940.40
2014,07,03,14,43,969.40
2014,07,03,14,44,937.00
2014,07,03,14,45,891.00
2014,07,03,14,46,891.00
2014,07,03,14,47,891.00
2014,07,03,14,48,891.00
2014,07,03,14,49,891.00
2014,07,03,14,50,939.70
2014,07,03,14,51,1016.70
2014,07,03,14,52,992.70
2014,07,03,14,53,1044.20
2014,07,03,14,54,1063.00
2014,07,03,14,55,800.00
2014,07,03,14,56,800.00
2014,07,03,14,57,800.00
2014,07,03,14,58,800.00
2014,07,03,14,59,900.20
2014,07,03,15,00,964.20
2014,07,03,15,01,978.10
2014,07,03,15,02,976.80
2014,07,03,15,03,970.00
2014,07,03,15,04,968.30
2014,07,03,15,05,928.00
2014,07,03,15,06,928.00
2014,07,03,15,07,928.00
2014,07,03,15,08,928.00
2014,07,03,15,09,726.30
2014,07,03,15,10,708.00
2014,07,03,15,11,708.00
2014,07,03,15,12,727.30
2014,07,03,15,13,745.00
2014,07,03,15,14,745.00
2014,07,03,15,15,745.00
2014,07,03,15,16,745.00
2014,07,03,15,17,745.00
2014,07,03,15,18,746.50
2014,07,03,15,19,732.00
2014,07,03,15,20,688.90
2014,07,03,15,21,675.00
2014,07,03,15,22,825.00
2014,07,03,15,23,840.00
2014,07,03,15,24,810.00
2014,07,03,15,25,699.80
2014,07,03,15,26,736.80
2014,07,03,15,27,782.00
2014,07,03,15,28,692.10
2014,07,03,15,29,664.00
2014,07,03,15,30,664.00
2014,07,03,15,31,782.40
2014,07,03,15,32,1142.80
2014,07,03,15,33,1183.00
2014,07,03,15,34,873.20
2014,07,03,15,35,765.90
2014,07,03,15,36,784.00
2014,07,03,15,37,784.00
2014,07,03,15,38,748.00
2014,07,03,15,39,652.00
2014,07,03,15,40,714.90
2014,07,03,15,41,733.10
2014,07,03,15,42,701.70
2014,07,03,15,43,616.20
2014,07,03,15,44,638.00
2014,07,03,15,45,699.60
2014,07,03,15,46,848.60
2014,07,03,15,47,809.00
2014,07,03,15,48,809.00
2014,07,03,15,49,625.90
2014,07,03,15,50,621.40
2014,07,03,15,51,656.00
2014,07,03,15,52,656.00
2014,07,03,15,53,656.00
2014,07,03,15,54,656.00
2014,07,03,15,55,656.00
2014,07,03,15,56,656.00
2014,07,03,15,57,566.20
2014,07,03,15,58,592.50
2014,07,03,15,59,608.00
2014,07,03,16,00,608.00
2014,07,03,16,01,696.40
2014,07,03,16,02,770.00
2014,07,03,16,03,883.50
2014,07,03,16,04,949.40
2014,07,03,16,05,954.00
2014,07,03,16,06,954.00
2014,07,03,16,07,954.00
2014,07,03,16,08,954.00
2014,07,03,16,09,954.00
2014,07,03,16,10,909.20
2014,07,03,16,11,895.40
2014,07,03,16,12,895.00
2014,07,03,16,13,895.00
2014,07,03,16,14,895.00
2014,07,03,16,15,866.00
2014,07,03,16,16,854.80
2014,07,03,16,17,861.10
2014,07,03,16,18,794.90
2014,07,03,16,19,864.70
2014,07,03,16,20,838.30
2014,07,03,16,21,806.00
2014,07,03,16,22,757.00
2014,07,03,16,23,745.30
2014,07,03,16,24,791.20
2014,07,03,16,25,776.50
2014,07,03,16,26,828.00
2014,07,03,16,27,855.70
2014,07,03,16,28,861.80
2014,07,03,16,29,818.50
2014,07,03,16,30,815.20
2014,07,03,16,31,827.00
2014,07,03,16,32,815.00
2014,07,03,16,33,804.60
2014,07,03,16,34,800.40
2014,07,03,16,35,794.20
2014,07,03,16,36,789.50
2014,07,03,16,37,782.30
2014,07,03,16,38,775.90
2014,07,03,16,39,785.00
2014,07,03,16,40,783.70
2014,07,03,16,41,781.20
2014,07,03,16,42,778.20
2014,07,03,16,43,756.00
2014,07,03,16,44,676.30
2014,07,03,16,45,645.00
2014,07,03,16,46,751.80
2014,07,03,16,47,740.90
2014,07,03,16,48,696.60
2014,07,03,16,49,751.50
2014,07,03,16,50,752.50
2014,07,03,16,51,734.40
2014,07,03,16,52,735.30
2014,07,03,16,53,727.10
2014,07,03,16,54,721.40
2014,07,03,16,55,724.00
2014,07,03,16,56,717.50
2014,07,03,16,57,719.50
2014,07,03,16,58,726.50
2014,07,03,16,59,731.00
2014,07,03,17,00,750.30
2014,07,03,17,01,758.10
2014,07,03,17,02,760.60
2014,07,03,17,03,761.00
2014,07,03,17,04,754.00
2014,07,03,17,05,754.00
2014,07,03,17,06,728.50
2014,07,03,17,07,685.60
2014,07,03,17,08,656.00
2014,07,03,17,09,681.80
2014,07,03,17,10,697.70